Dati Storici

Data ora Umidita' aria (%) Temperatura aria (°C) Rad globale (W/m²) Gonioanemometro (°) Tacoanemometro (m/s) Pioggia (mm)
15-10-2012 13:20 87.2 % 16.691 102.889 17.59 1.421 0
15-10-2012 13:10 87 % 16.676 79.145 35.244 0.804 0
15-10-2012 13:00 86.2 % 16.641 73.143 327.909 0.616 0
15-10-2012 12:50 86 % 16.578 58.379 43.344 1.39 0
15-10-2012 12:40 85.6 % 16.362 81.895 18.693 1.344 0
15-10-2012 12:30 85.8 % 16.178 148.482 38.18 3.104 0
15-10-2012 12:20 86.1 % 15.892 107.009 17.821 2.24 0
15-10-2012 12:10 86.4 % 15.851 110.256 51.642 0.761 0
15-10-2012 12:00 86.6 % 15.832 76.357 18.943 2.232 0
15-10-2012 11:50 86.4 % 15.746 121.748 14.174 2.079 0
15-10-2012 11:40 85.7 % 15.646 129.629 40.771 1.26 0
15-10-2012 11:30 85.1 % 15.719 61.641 77.778 0.411 0
15-10-2012 11:20 84.4 % 15.582 57.566 62.701 1.826 0
15-10-2012 11:10 83.8 % 15.726 65.015 86.892 1.356 0
15-10-2012 11:00 83.9 % 15.943 143.254 35.566 1.863 0
15-10-2012 10:50 83.8 % 15.551 174.596 16.388 3.694 0
15-10-2012 10:40 84 % 15.431 194.482 31.799 1.311 0
15-10-2012 10:30 83.8 % 15.211 158.724 90.522 1.267 0
15-10-2012 10:20 83.8 % 15.262 198.783 99.888 1.294 0
15-10-2012 10:10 84.4 % 15.09 209.956 51.023 1.399 0

I dati sono presentati in modo automatico a scopo informativo. In seguito a verifica i dati possono subire modifiche o essere invalidati e non riportati negli archivi definitivi.